Location: Cheadle
(51.0146°N, 113.5417°W)
Time: 16:31:14
(UTC+00:00)

TIGRISAT - Pass Details

Date: 08 December 2023
Orbit: 597 x 674 km, 97.7° (Epoch: 28 February)

Event Time Altitude Azimuth Distance (km) Brightness Sun altitude
Exits shadow 02:51:11 - 352° (N) 2,713 ? -30.7°
Reaches altitude 10° 02:54:55 10° 313° (NW) 2,036 ? -31.3°
Maximum altitude 02:55:17 10° 309° (NW) 2,027 ? -31.4°
Drops below altitude 10° 02:55:39 10° 304° (NW) 2,031 ? -31.4°
Sets 03:00:11 0° 259° (W) 2,905 ? -32.1°
